UAL44D KLAS-KLAX

Flight info

Callsign UAL44D
Flight time 0h 40m
Altitude 28000
Route RADYR2 BLAQQ SHTNR ANJLL4
Aircraft A320/M-SDE3FGHIRWY/LB1

Departure

Time 2026-05-07 23:35
Airport Harry Reid International Airport (KLAS)

Arrival

Time 2026-05-08 00:15
Airport Los Angeles International Airport (KLAX)
Time Latitude Longitude Altitude Speed Heading
2026-05-07 22:49 36.08533 -115.13846 2088 ft 0 kts 360°
2026-05-07 23:17 36.08519 -115.13846 2087 ft 4 kts
2026-05-07 23:17 36.08492 -115.13849 2087 ft 4 kts 16°
2026-05-07 23:17 36.08471 -115.13863 2087 ft 4 kts 65°
2026-05-07 23:17 36.08468 -115.13874 2087 ft 0 kts 90°
2026-05-07 23:22 36.08468 -115.13871 2087 ft 1 kts 90°
2026-05-07 23:23 36.08468 -115.13834 2087 ft 7 kts 90°
2026-05-07 23:23 36.08468 -115.13747 2087 ft 13 kts 90°
2026-05-07 23:23 36.08468 -115.13614 2087 ft 18 kts 90°
2026-05-07 23:23 36.08462 -115.13463 2087 ft 17 kts 116°
2026-05-07 23:24 36.08380 -115.13344 2087 ft 18 kts 135°
2026-05-07 23:24 36.08287 -115.13287 2089 ft 17 kts 174°
2026-05-07 23:24 36.08154 -115.13287 2086 ft 17 kts 178°
2026-05-07 23:24 36.08013 -115.13285 2083 ft 23 kts 179°
2026-05-07 23:25 36.07891 -115.13283 2080 ft 18 kts 180°
2026-05-07 23:25 36.07827 -115.13166 2070 ft 18 kts 90°
2026-05-07 23:25 36.07828 -115.13003 2065 ft 18 kts 90°
2026-05-07 23:25 36.07829 -115.12814 2057 ft 26 kts 90°
2026-05-07 23:26 36.07829 -115.12636 2049 ft 17 kts 90°
2026-05-07 23:26 36.07829 -115.12472 2049 ft 21 kts 90°
2026-05-07 23:26 36.07828 -115.12299 2045 ft 20 kts 95°
2026-05-07 23:26 36.07764 -115.12169 2040 ft 11 kts 129°
2026-05-07 23:27 36.07741 -115.12136 2040 ft 0 kts 136°
2026-05-07 23:33 36.07740 -115.12136 2040 ft 1 kts 136°
2026-05-07 23:33 36.07706 -115.12117 2043 ft 10 kts 184°
2026-05-07 23:34 36.07639 -115.12186 2046 ft 18 kts 263°
2026-05-07 23:34 36.07639 -115.12393 2051 ft 41 kts 270°
2026-05-07 23:34 36.07640 -115.13012 2066 ft 102 kts 270°
2026-05-07 23:34 36.07638 -115.13687 2088 ft 135 kts 270°
2026-05-07 23:35 36.07640 -115.15517 2356 ft 168 kts 271°
2026-05-07 23:35 36.07655 -115.16480 2788 ft 168 kts 271°
2026-05-07 23:35 36.07629 -115.17924 3438 ft 169 kts 268°
2026-05-07 23:35 36.07611 -115.19971 3985 ft 195 kts 269°
2026-05-07 23:36 36.07478 -115.21736 4406 ft 218 kts 260°
2026-05-07 23:36 36.07293 -115.23037 4728 ft 235 kts 260°
2026-05-07 23:36 36.06804 -115.25019 5107 ft 253 kts 240°
2026-05-07 23:36 36.05518 -115.26523 5379 ft 268 kts 206°
2026-05-07 23:37 36.03738 -115.27368 6058 ft 277 kts 200°
2026-05-07 23:37 36.01907 -115.28189 6851 ft 281 kts 201°
2026-05-07 23:37 36.00061 -115.29025 7611 ft 286 kts 201°
2026-05-07 23:37 35.98123 -115.29673 8035 ft 292 kts 192°
2026-05-07 23:38 35.96116 -115.30152 8882 ft 293 kts 193°
2026-05-07 23:38 35.94137 -115.30635 9688 ft 296 kts 194°
2026-05-07 23:38 35.92099 -115.31140 10278 ft 309 kts 194°
2026-05-07 23:38 35.89909 -115.31685 10532 ft 330 kts 193°
2026-05-07 23:39 35.87615 -115.32254 11062 ft 340 kts 193°
2026-05-07 23:39 35.85277 -115.32829 11709 ft 346 kts 192°
2026-05-07 23:39 35.82924 -115.33405 12388 ft 350 kts 192°
2026-05-07 23:39 35.80516 -115.33995 13100 ft 354 kts 191°
2026-05-07 23:40 35.78093 -115.34587 13788 ft 359 kts 191°
2026-05-07 23:40 35.75627 -115.35187 14423 ft 363 kts 191°
2026-05-07 23:40 35.73124 -115.35793 15059 ft 367 kts 191°
2026-05-07 23:40 35.70603 -115.36404 15672 ft 371 kts 191°
2026-05-07 23:41 35.68051 -115.37027 16282 ft 375 kts 191°
2026-05-07 23:41 35.65473 -115.37657 16878 ft 379 kts 191°
2026-05-07 23:41 35.62868 -115.38298 17492 ft 384 kts 191°
2026-05-07 23:41 35.60212 -115.38683 18091 ft 388 kts 180°
2026-05-07 23:42 35.57525 -115.38554 18630 ft 392 kts 175°
2026-05-07 23:42 35.54803 -115.38351 19182 ft 396 kts 175°
2026-05-07 23:42 35.52034 -115.38147 19753 ft 400 kts 175°
2026-05-07 23:42 35.49234 -115.37943 20309 ft 404 kts 175°
2026-05-07 23:43 35.46411 -115.37907 20841 ft 408 kts 184°
2026-05-07 23:43 35.43598 -115.38473 21381 ft 413 kts 195°
2026-05-07 23:43 35.40877 -115.39673 21905 ft 416 kts 206°
2026-05-07 23:43 35.38301 -115.41318 22425 ft 420 kts 208°
2026-05-07 23:44 35.35733 -115.42978 22942 ft 424 kts 208°
2026-05-07 23:44 35.33067 -115.44686 23477 ft 428 kts 208°
2026-05-07 23:44 35.30439 -115.46353 23919 ft 432 kts 208°
2026-05-07 23:44 35.27755 -115.48056 24359 ft 435 kts 208°
2026-05-07 23:45 35.25062 -115.49766 24805 ft 438 kts 208°
2026-05-07 23:45 35.22338 -115.51499 25252 ft 440 kts 208°
2026-05-07 23:45 35.19624 -115.53230 25680 ft 443 kts 208°
2026-05-07 23:45 35.16923 -115.54953 26090 ft 445 kts 208°
2026-05-07 23:46 35.14175 -115.56769 26515 ft 448 kts 212°
2026-05-07 23:46 35.11656 -115.58997 26931 ft 449 kts 222°
2026-05-07 23:46 35.09424 -115.61671 27337 ft 450 kts 228°
2026-05-07 23:46 35.07265 -115.64452 27718 ft 453 kts 227°
2026-05-07 23:47 35.05076 -115.67263 27870 ft 453 kts 227°
2026-05-07 23:47 35.02939 -115.69991 27902 ft 436 kts 227°
2026-05-07 23:47 35.00891 -115.72595 27895 ft 429 kts 227°
2026-05-07 23:47 34.98821 -115.75231 27901 ft 427 kts 227°
2026-05-07 23:48 34.96774 -115.77840 27886 ft 426 kts 227°
2026-05-07 23:48 34.94726 -115.80451 27890 ft 426 kts 227°
2026-05-07 23:48 34.92661 -115.83080 27880 ft 426 kts 227°
2026-05-07 23:48 34.90617 -115.85677 27875 ft 426 kts 227°
2026-05-07 23:49 34.88589 -115.88253 27878 ft 426 kts 227°
2026-05-07 23:49 34.86511 -115.90890 27865 ft 426 kts 227°
2026-05-07 23:49 34.84479 -115.93466 27868 ft 426 kts 227°
2026-05-07 23:49 34.82425 -115.96067 27870 ft 426 kts 227°
2026-05-07 23:50 34.80372 -115.98666 27868 ft 426 kts 227°
2026-05-07 23:50 34.78317 -116.01266 27880 ft 426 kts 227°
2026-05-07 23:50 34.76267 -116.03863 27878 ft 426 kts 227°
2026-05-07 23:50 34.74216 -116.06474 27878 ft 426 kts 227°
2026-05-07 23:51 34.72194 -116.09055 27877 ft 426 kts 227°
2026-05-07 23:51 34.70151 -116.11663 27880 ft 426 kts 227°
2026-05-07 23:51 34.68104 -116.14270 27886 ft 426 kts 227°
2026-05-07 23:51 34.66052 -116.16878 27886 ft 426 kts 227°
2026-05-07 23:52 34.64004 -116.19477 27889 ft 426 kts 227°
2026-05-07 23:52 34.61942 -116.22095 27887 ft 426 kts 227°
2026-05-07 23:52 34.59896 -116.24692 27888 ft 426 kts 227°
2026-05-07 23:52 34.57842 -116.27299 27892 ft 426 kts 227°
2026-05-07 23:53 34.55800 -116.29886 27895 ft 426 kts 227°
2026-05-07 23:53 34.53751 -116.32474 27900 ft 426 kts 227°
2026-05-07 23:53 34.51692 -116.35074 27904 ft 426 kts 227°
2026-05-07 23:53 34.49635 -116.37675 27905 ft 426 kts 227°
2026-05-07 23:54 34.47614 -116.40235 27930 ft 426 kts 227°
2026-05-07 23:54 34.45564 -116.42827 27928 ft 426 kts 227°
2026-05-07 23:54 34.43512 -116.45419 27926 ft 426 kts 228°
2026-05-07 23:54 34.41651 -116.48206 27924 ft 424 kts 238°
2026-05-07 23:55 34.40204 -116.51306 27951 ft 421 kts 246°
2026-05-07 23:55 34.38906 -116.54488 27947 ft 422 kts 246°
2026-05-07 23:55 34.37590 -116.57697 27365 ft 426 kts 245°
2026-05-07 23:55 34.36287 -116.60850 26941 ft 423 kts 245°
2026-05-07 23:56 34.34970 -116.64020 26542 ft 420 kts 245°
2026-05-07 23:56 34.33659 -116.67170 26114 ft 418 kts 245°
2026-05-07 23:56 34.32362 -116.70315 25675 ft 416 kts 246°
2026-05-07 23:56 34.31093 -116.73460 25223 ft 416 kts 246°
2026-05-07 23:57 34.29828 -116.76633 24803 ft 415 kts 246°
2026-05-07 23:57 34.28574 -116.79788 24339 ft 416 kts 246°
2026-05-07 23:57 34.27321 -116.82928 23879 ft 415 kts 246°
2026-05-07 23:57 34.26059 -116.86078 23387 ft 416 kts 246°
2026-05-07 23:58 34.24797 -116.89211 23026 ft 411 kts 246°
2026-05-07 23:58 34.23558 -116.92268 22891 ft 400 kts 246°
2026-05-07 23:58 34.22369 -116.95198 22712 ft 386 kts 246°
2026-05-07 23:58 34.21220 -116.98076 22129 ft 376 kts 250°
2026-05-07 23:59 34.20372 -117.01020 21443 ft 369 kts 254°
2026-05-07 23:59 34.19582 -117.03960 20775 ft 364 kts 254°
2026-05-07 23:59 34.18809 -117.06823 20326 ft 352 kts 254°
2026-05-07 23:59 34.18055 -117.09603 19923 ft 348 kts 254°
2026-05-08 00:00 34.17302 -117.12378 19517 ft 348 kts 254°
2026-05-08 00:00 34.16548 -117.15166 19114 ft 348 kts 254°
2026-05-08 00:00 34.15793 -117.17949 18703 ft 348 kts 254°
2026-05-08 00:00 34.15046 -117.20685 18339 ft 349 kts 253°
2026-05-08 00:01 34.14282 -117.23468 17859 ft 349 kts 253°
2026-05-08 00:01 34.13515 -117.26248 17445 ft 348 kts 253°
2026-05-08 00:01 34.12749 -117.29024 17038 ft 346 kts 253°
2026-05-08 00:01 34.11990 -117.31769 16635 ft 345 kts 253°
2026-05-08 00:02 34.11239 -117.34483 16238 ft 343 kts 253°
2026-05-08 00:02 34.10483 -117.37221 15832 ft 342 kts 253°
2026-05-08 00:02 34.09763 -117.39945 15429 ft 340 kts 255°
2026-05-08 00:02 34.09077 -117.42673 15022 ft 339 kts 255°
2026-05-08 00:03 34.08401 -117.45416 14617 ft 338 kts 255°
2026-05-08 00:03 34.07740 -117.48112 14226 ft 337 kts 255°
2026-05-08 00:03 34.07168 -117.50854 13839 ft 332 kts 262°
2026-05-08 00:03 34.06783 -117.53573 13382 ft 332 kts 262°
2026-05-08 00:04 34.06391 -117.56261 12956 ft 322 kts 262°
2026-05-08 00:04 34.05997 -117.58914 12352 ft 316 kts 262°
2026-05-08 00:04 34.05617 -117.61466 11819 ft 309 kts 261°
2026-05-08 00:04 34.05238 -117.64016 11337 ft 305 kts 263°
2026-05-08 00:05 34.04863 -117.66540 10894 ft 306 kts 262°
2026-05-08 00:05 34.04493 -117.69020 10641 ft 302 kts 262°
2026-05-08 00:05 34.04124 -117.71498 10259 ft 297 kts 263°
2026-05-08 00:05 34.03764 -117.73920 10123 ft 293 kts 262°
2026-05-08 00:06 34.03407 -117.76341 9988 ft 291 kts 264°
2026-05-08 00:06 34.03051 -117.78771 9475 ft 295 kts 262°
2026-05-08 00:06 34.02693 -117.81181 8955 ft 289 kts 263°
2026-05-08 00:06 34.02340 -117.83545 8592 ft 288 kts 262°
2026-05-08 00:07 34.01984 -117.85923 8280 ft 282 kts 262°
2026-05-08 00:07 34.01642 -117.88193 7728 ft 276 kts 262°
2026-05-08 00:07 34.01300 -117.90475 7131 ft 271 kts 261°
2026-05-08 00:07 34.00970 -117.92680 6517 ft 269 kts 261°
2026-05-08 00:08 34.00637 -117.94892 5878 ft 268 kts 261°
2026-05-08 00:08 34.00309 -117.97071 5322 ft 263 kts 261°
2026-05-08 00:08 33.99987 -117.99204 5199 ft 252 kts 261°
2026-05-08 00:08 33.99680 -118.01234 5106 ft 241 kts 261°
2026-05-08 00:09 33.99385 -118.03181 5007 ft 230 kts 261°
2026-05-08 00:09 33.99103 -118.05035 4911 ft 221 kts 261°
2026-05-08 00:09 33.98832 -118.06825 4814 ft 211 kts 261°
2026-05-08 00:09 33.98574 -118.08521 4723 ft 201 kts 261°
2026-05-08 00:10 33.98329 -118.10140 4633 ft 200 kts 261°
2026-05-08 00:10 33.98075 -118.11824 4546 ft 202 kts 262°
2026-05-08 00:10 33.97873 -118.13484 4315 ft 204 kts 264°
2026-05-08 00:10 33.97703 -118.15197 4047 ft 203 kts 264°
2026-05-08 00:11 33.97545 -118.16864 3816 ft 201 kts 264°
2026-05-08 00:11 33.97386 -118.18532 3562 ft 200 kts 265°
2026-05-08 00:11 33.97224 -118.20198 3317 ft 201 kts 264°
2026-05-08 00:11 33.97059 -118.21876 3070 ft 200 kts 264°
2026-05-08 00:12 33.96895 -118.23547 2819 ft 201 kts 264°
2026-05-08 00:12 33.96729 -118.25208 2589 ft 192 kts 263°
2026-05-08 00:12 33.96576 -118.26729 2333 ft 186 kts 263°
2026-05-08 00:12 33.96422 -118.28258 2088 ft 181 kts 263°
2026-05-08 00:13 33.96273 -118.29734 1844 ft 176 kts 262°
2026-05-08 00:13 33.96125 -118.31192 1624 ft 176 kts 261°
2026-05-08 00:13 33.95979 -118.32633 1400 ft 172 kts 261°
2026-05-08 00:13 33.95836 -118.34047 1162 ft 167 kts 261°
2026-05-08 00:14 33.95704 -118.35348 976 ft 146 kts 263°
2026-05-08 00:14 33.95589 -118.36491 731 ft 133 kts 260°
2026-05-08 00:14 33.95481 -118.37587 547 ft 131 kts 260°
2026-05-08 00:14 33.95353 -118.38664 339 ft 131 kts 259°
2026-05-08 00:15 33.95260 -118.39751 209 ft 129 kts 261°
2026-05-08 00:15 33.95147 -118.40802 94 ft 117 kts 260°
2026-05-08 00:15 33.95084 -118.41430 94 ft 32 kts 263°
2026-05-08 00:15 33.95075 -118.41501 96 ft 5 kts 262°
2026-05-08 00:16 33.95069 -118.41551 94 ft 3 kts 262°
2026-05-08 00:16 33.95062 -118.41615 95 ft 13 kts 262°
2026-05-08 00:16 33.95047 -118.41760 97 ft 22 kts 264°
2026-05-08 00:16 33.95025 -118.41970 93 ft 27 kts 261°
2026-05-08 00:17 33.94976 -118.42130 94 ft 15 kts 240°
2026-05-08 00:17 33.94907 -118.42227 95 ft 9 kts 223°
2026-05-08 00:17 33.94905 -118.42230 95 ft 0 kts 223°
2026-05-08 00:18 33.94903 -118.42232 97 ft 2 kts 223°
2026-05-08 00:18 33.94900 -118.42236 96 ft 1 kts 223°
2026-05-08 00:19 33.94884 -118.42254 96 ft 0 kts 223°
2026-05-08 00:19 33.94867 -118.42269 96 ft 6 kts 207°
2026-05-08 00:19 33.94808 -118.42292 99 ft 12 kts 188°
2026-05-08 00:19 33.94706 -118.42261 94 ft 18 kts 143°
2026-05-08 00:20 33.94692 -118.42137 94 ft 15 kts 84°
2026-05-08 00:20 33.94701 -118.42040 94 ft 19 kts 83°
2026-05-08 00:20 33.94715 -118.41872 95 ft 17 kts 95°
2026-05-08 00:20 33.94676 -118.41825 93 ft 0 kts 165°
2026-05-08 00:22 33.94672 -118.41823 94 ft 3 kts 161°
2026-05-08 00:23 33.94646 -118.41787 94 ft 9 kts 119°
2026-05-08 00:23 33.94602 -118.41719 93 ft 13 kts 149°
2026-05-08 00:23 33.94576 -118.41642 95 ft 4 kts 84°
2026-05-08 00:23 33.94576 -118.41635 93 ft 0 kts 84°